User: anonymous
Location: West Cummington
(42.4920°N, 72.9680°W)
Time: 08:21:32
(UTC-04:00)
Language:

Cosmos 841 Rocket - Orbit

View from above orbital plane
View from above orbital plane
View from above satellite
View from above satellite

Ground track
Ground track

The orbit data is extracted from the following two-line orbital elements,

1 09023U 76069B   14208.68001855  .00000125  00000-0  48715-4 0  4475
2 09023 074.0422 244.3289 0018960 308.9632 050.9832 14.39168840992957
Epoch (UTC): 27 July 2014 16:19:13
Eccentricity: 0.0018960
inclination: 74.0422°
perigee height: 748 km
apogee height: 775 km
right ascension of ascending node: 244.3289°
argument of perigee: 308.9632°
revolutions per day: 14.39168840
mean anomaly at epoch: 50.9832°
orbit number at epoch: 99295

The dashed part of the orbit path shows where the satellite is in the earth's shadow,  

DLR